Time,TemperatureF,DewpointF,PressureIn,WindDirection,WindDirectionDegrees,WindSpeedMPH,WindSpeedGustMPH,Humidity,HourlyPrecipIn,Conditions,Clouds,dailyrainin,SolarRadiationWatts/m^2,SoftwareType,DateUTC
2013-01-21 00:13:00,45.0,12.0,-100.00,West,266,2.0,3.0,26,-99.99,,,-99.99,0.000000,,2013-01-21 08:13:00,
2013-01-21 00:22:00,45.0,12.0,-100.00,West,266,2.0,3.0,26,-99.99,,,-99.99,0.000000,,2013-01-21 08:22:00,
2013-01-21 00:32:00,46.0,12.0,-100.00,West,270,3.0,4.0,25,-99.99,,,-99.99,0.000000,,2013-01-21 08:32:00,
2013-01-21 00:42:00,44.0,13.0,-100.00,East,81,1.0,3.0,27,-99.99,,,-99.99,0.000000,,2013-01-21 08:42:00,
2013-01-21 00:53:00,44.0,13.0,-100.00,East,81,1.0,3.0,27,-99.99,,,-99.99,0.000000,,2013-01-21 08:53:00,
2013-01-21 01:02:00,44.0,13.0,-100.00,NNW,330,0.0,1.0,28,-99.99,,,-99.99,0.000000,,2013-01-21 09:02:00,
2013-01-21 01:12:00,42.0,13.0,-100.00,SE,124,0.0,1.0,30,-99.99,,,-99.99,0.000000,,2013-01-21 09:12:00,
2013-01-21 01:22:00,42.0,13.0,-100.00,SE,124,0.0,1.0,30,-99.99,,,-99.99,0.000000,,2013-01-21 09:22:00,
2013-01-21 01:33:00,40.0,13.0,-100.00,SW,220,1.0,2.0,33,-99.99,,,-99.99,0.000000,,2013-01-21 09:33:00,
2013-01-21 01:42:00,41.0,12.0,-100.00,ESE,106,1.0,2.0,31,-99.99,,,-99.99,0.000000,,2013-01-21 09:42:00,
2013-01-21 01:52:00,41.0,12.0,-100.00,ESE,106,1.0,2.0,31,-99.99,,,-99.99,0.000000,,2013-01-21 09:52:00,
2013-01-21 02:02:00,43.0,11.0,-100.00,West,269,3.0,4.0,27,-99.99,,,-99.99,0.000000,,2013-01-21 10:02:00,
2013-01-21 02:12:00,43.0,11.0,-100.00,West,269,3.0,4.0,27,-99.99,,,-99.99,0.000000,,2013-01-21 10:12:00,
2013-01-21 02:22:00,44.0,11.0,-100.00,West,281,1.0,5.0,26,-99.99,,,-99.99,0.000000,,2013-01-21 10:22:00,
2013-01-21 02:32:00,43.0,12.0,-100.00,WNW,285,1.0,4.0,27,-99.99,,,-99.99,0.000000,,2013-01-21 10:32:00,
2013-01-21 02:42:00,42.0,12.0,-100.00,ESE,107,2.0,5.0,28,-99.99,,,-99.99,0.000000,,2013-01-21 10:42:00,
2013-01-21 02:52:00,44.0,11.0,-100.00,North,352,1.0,4.0,26,-99.99,,,-99.99,0.000000,,2013-01-21 10:52:00,
2013-01-21 03:02:00,43.0,12.0,-100.00,ESE,107,1.0,3.0,28,-99.99,,,-99.99,0.000000,,2013-01-21 11:02:00,
2013-01-21 03:12:00,42.0,12.0,-100.00,ESE,123,1.0,2.0,29,-99.99,,,-99.99,0.000000,,2013-01-21 11:12:00,
2013-01-21 03:22:00,41.0,12.0,-100.00,South,185,0.0,2.0,30,-99.99,,,-99.99,0.000000,,2013-01-21 11:22:00,
2013-01-21 03:32:00,40.0,11.0,-100.00,ESE,108,0.0,2.0,30,-99.99,,,-99.99,0.000000,,2013-01-21 11:32:00,
2013-01-21 03:42:00,40.0,12.0,-100.00,East,99,1.0,2.0,31,-99.99,,,-99.99,0.000000,,2013-01-21 11:42:00,
2013-01-21 03:53:00,38.0,12.0,-100.00,West,273,2.0,3.0,34,-99.99,,,-99.99,0.000000,,2013-01-21 11:53:00,
2013-01-21 04:02:00,40.0,10.0,-100.00,WNW,285,3.0,6.0,29,-99.99,,,-99.99,0.000000,,2013-01-21 12:02:00,
2013-01-21 04:12:00,44.0,9.0,-100.00,NW,314,2.0,6.0,23,-99.99,,,-99.99,0.000000,,2013-01-21 12:12:00,
2013-01-21 04:22:00,41.0,10.0,-100.00,NE,48,1.0,2.0,27,-99.99,,,-99.99,0.000000,,2013-01-21 12:22:00,
2013-01-21 04:32:00,41.0,10.0,-100.00,NE,48,1.0,2.0,27,-99.99,,,-99.99,0.000000,,2013-01-21 12:32:00,
2013-01-21 04:42:00,41.0,10.0,-100.00,ESE,104,2.0,4.0,28,-99.99,,,-99.99,0.000000,,2013-01-21 12:42:00,
2013-01-21 04:52:00,41.0,10.0,-100.00,ESE,104,2.0,4.0,28,-99.99,,,-99.99,0.000000,,2013-01-21 12:52:00,
2013-01-21 05:02:00,41.0,10.0,-100.00,ESE,109,1.0,2.0,28,-99.99,,,-99.99,0.000000,,2013-01-21 13:02:00,
2013-01-21 05:12:00,39.0,11.0,-100.00,South,178,0.0,3.0,31,-99.99,,,-99.99,0.000000,,2013-01-21 13:12:00,
2013-01-21 05:20:00,38.0,10.0,-100.00,ESE,108,1.0,3.0,31,-99.99,,,-99.99,0.000000,,2013-01-21 13:20:00,
2013-01-21 05:23:00,37.0,11.0,-100.00,SW,221,1.0,2.0,33,-99.99,,,-99.99,0.000000,,2013-01-21 13:23:00,
2013-01-21 05:33:00,37.0,11.0,-100.00,SW,221,1.0,2.0,33,-99.99,,,-99.99,0.000000,,2013-01-21 13:33:00,
2013-01-21 05:42:00,37.0,11.0,-100.00,ESE,116,1.0,2.0,34,-99.99,,,-99.99,0.000000,,2013-01-21 13:42:00,
2013-01-21 05:53:00,37.0,11.0,-100.00,SW,223,1.0,4.0,34,-99.99,,,-99.99,0.000000,,2013-01-21 13:53:00,
2013-01-21 06:03:00,37.0,10.0,-100.00,SE,124,1.0,2.0,33,-99.99,,,-99.99,0.000000,,2013-01-21 14:03:00,
2013-01-21 06:12:00,38.0,10.0,-100.00,ESE,108,1.0,3.0,31,-99.99,,,-99.99,0.000000,,2013-01-21 14:12:00,
2013-01-21 06:52:00,38.0,10.0,-100.00,ESE,117,1.0,3.0,31,-99.99,,,-99.99,0.000000,,2013-01-21 14:52:00,
2013-01-21 07:03:00,37.0,10.0,-100.00,ESE,103,1.0,3.0,31,-99.99,,,-99.99,0.000000,,2013-01-21 15:03:00,
2013-01-21 07:13:00,38.0,10.0,-100.00,SE,131,1.0,3.0,31,-99.99,,,-99.99,0.000000,,2013-01-21 15:13:00,
2013-01-21 07:23:00,37.0,9.0,-100.00,South,188,1.0,2.0,31,-99.99,,,-99.99,0.000000,,2013-01-21 15:23:00,
2013-01-21 07:33:00,36.0,10.0,-100.00,SW,219,0.0,3.0,34,-99.99,,,-99.99,0.000000,,2013-01-21 15:33:00,
2013-01-21 07:42:00,36.0,10.0,-100.00,SW,223,1.0,3.0,33,-99.99,,,-99.99,9.000000,,2013-01-21 15:42:00,
2013-01-21 07:52:00,37.0,10.0,-100.00,SSE,168,1.0,3.0,32,-99.99,,,-99.99,28.000000,,2013-01-21 15:52:00,
2013-01-21 08:03:00,37.0,10.0,-100.00,SSE,168,1.0,3.0,32,-99.99,,,-99.99,28.000000,,2013-01-21 16:03:00,
2013-01-21 08:12:00,41.0,11.0,-100.00,South,186,0.0,2.0,28,-99.99,,,-99.99,78.000000,,2013-01-21 16:12:00,
2013-01-21 08:23:00,43.0,12.0,-100.00,SE,135,1.0,3.0,27,-99.99,,,-99.99,82.000000,,2013-01-21 16:23:00,
2013-01-21 08:33:00,43.0,12.0,-100.00,SE,135,1.0,3.0,27,-99.99,,,-99.99,82.000000,,2013-01-21 16:33:00,
2013-01-21 08:43:00,47.0,12.0,-100.00,ESE,104,0.0,4.0,24,-99.99,,,-99.99,127.000000,,2013-01-21 16:43:00,
2013-01-21 08:53:00,47.0,10.0,-100.00,ESE,104,2.0,3.0,22,-99.99,,,-99.99,101.000000,,2013-01-21 16:53:00,
2013-01-21 09:02:00,47.0,11.0,-100.00,ESE,108,2.0,3.0,23,-99.99,,,-99.99,255.000000,,2013-01-21 17:02:00,
2013-01-21 09:12:00,47.0,10.0,-100.00,ESE,103,3.0,5.0,22,-99.99,,,-99.99,301.000000,,2013-01-21 17:12:00,
2013-01-21 09:22:00,47.0,10.0,-100.00,East,98,3.0,4.0,22,-99.99,,,-99.99,333.000000,,2013-01-21 17:22:00,
2013-01-21 09:33:00,47.0,10.0,-100.00,West,269,0.0,2.0,22,-99.99,,,-99.99,363.000000,,2013-01-21 17:33:00,
2013-01-21 09:42:00,48.0,10.0,-100.00,SW,220,1.0,2.0,21,-99.99,,,-99.99,391.000000,,2013-01-21 17:42:00,
2013-01-21 09:52:00,49.0,9.0,-100.00,West,277,2.0,3.0,20,-99.99,,,-99.99,420.000000,,2013-01-21 17:52:00,
2013-01-21 10:02:00,50.0,10.0,-100.00,NNW,341,2.0,4.0,19,-99.99,,,-99.99,446.000000,,2013-01-21 18:02:00,
2013-01-21 10:12:00,52.0,10.0,-100.00,NNW,328,2.0,5.0,18,-99.99,,,-99.99,472.000000,,2013-01-21 18:12:00,
2013-01-21 10:22:00,53.0,9.0,-100.00,NNW,331,4.0,8.0,17,-99.99,,,-99.99,497.000000,,2013-01-21 18:22:00,
2013-01-21 10:33:00,53.0,9.0,-100.00,NW,313,4.0,9.0,17,-99.99,,,-99.99,521.000000,,2013-01-21 18:33:00,
2013-01-21 10:42:00,54.0,9.0,-100.00,NW,307,5.0,8.0,16,-99.99,,,-99.99,544.000000,,2013-01-21 18:42:00,
2013-01-21 10:52:00,54.0,8.0,-100.00,NW,309,4.0,8.0,15,-99.99,,,-99.99,564.000000,,2013-01-21 18:52:00,
2013-01-21 11:03:00,55.0,8.0,-100.00,NW,311,5.0,8.0,15,-99.99,,,-99.99,584.000000,,2013-01-21 19:03:00,
2013-01-21 11:12:00,56.0,9.0,-100.00,NW,305,5.0,9.0,15,-99.99,,,-99.99,602.000000,,2013-01-21 19:12:00,
2013-01-21 11:22:00,56.0,7.0,-100.00,NW,306,5.0,10.0,14,-99.99,,,-99.99,617.000000,,2013-01-21 19:22:00,
2013-01-21 11:33:00,56.0,9.0,-100.00,NW,307,5.0,9.0,15,-99.99,,,-99.99,631.000000,,2013-01-21 19:33:00,
2013-01-21 11:42:00,56.0,8.0,-100.00,NW,315,5.0,9.0,14,-99.99,,,-99.99,644.000000,,2013-01-21 19:42:00,
2013-01-21 11:52:00,57.0,8.0,-100.00,NW,321,5.0,10.0,14,-99.99,,,-99.99,651.000000,,2013-01-21 19:52:00,
2013-01-21 12:03:00,57.0,7.0,-100.00,NW,309,4.0,8.0,13,-99.99,,,-99.99,661.000000,,2013-01-21 20:03:00,
2013-01-21 12:12:00,58.0,7.0,-100.00,NW,318,4.0,9.0,13,-99.99,,,-99.99,666.000000,,2013-01-21 20:12:00,
2013-01-21 12:22:00,58.0,7.0,-100.00,NW,319,4.0,9.0,13,-99.99,,,-99.99,675.000000,,2013-01-21 20:22:00,
2013-01-21 12:32:00,58.0,7.0,-100.00,NW,319,4.0,9.0,13,-99.99,,,-99.99,675.000000,,2013-01-21 20:32:00,
2013-01-21 12:43:00,59.0,8.0,-100.00,NW,310,5.0,9.0,13,-99.99,,,-99.99,675.000000,,2013-01-21 20:43:00,
2013-01-21 12:53:00,59.0,8.0,-100.00,NW,318,4.0,8.0,13,-99.99,,,-99.99,675.000000,,2013-01-21 20:53:00,
2013-01-21 13:03:00,60.0,9.0,-100.00,NW,324,4.0,7.0,13,-99.99,,,-99.99,674.000000,,2013-01-21 21:03:00,
2013-01-21 13:12:00,60.0,9.0,-100.00,NW,316,4.0,9.0,13,-99.99,,,-99.99,665.000000,,2013-01-21 21:12:00,
2013-01-21 13:22:00,60.0,8.0,-100.00,NW,320,4.0,8.0,12,-99.99,,,-99.99,660.000000,,2013-01-21 21:22:00,
2013-01-21 13:33:00,61.0,8.0,-100.00,NW,312,4.0,8.0,12,-99.99,,,-99.99,650.000000,,2013-01-21 21:33:00,
2013-01-21 13:43:00,62.0,9.0,-100.00,NNW,340,4.0,9.0,12,-99.99,,,-99.99,641.000000,,2013-01-21 21:43:00,
2013-01-21 13:53:00,62.0,7.0,-100.00,NNW,330,4.0,8.0,11,-99.99,,,-99.99,630.000000,,2013-01-21 21:53:00,
2013-01-21 14:03:00,63.0,7.0,-100.00,North,354,3.0,8.0,11,-99.99,,,-99.99,615.000000,,2013-01-21 22:03:00,
2013-01-21 14:12:00,63.0,8.0,-100.00,NW,320,4.0,9.0,11,-99.99,,,-99.99,600.000000,,2013-01-21 22:12:00,
2013-01-21 14:23:00,62.0,7.0,-100.00,NW,317,4.0,9.0,11,-99.99,,,-99.99,582.000000,,2013-01-21 22:23:00,
2013-01-21 14:33:00,63.0,7.0,-100.00,NW,323,3.0,8.0,11,-99.99,,,-99.99,561.000000,,2013-01-21 22:33:00,
2013-01-21 14:42:00,62.0,9.0,-100.00,WNW,292,5.0,9.0,12,-99.99,,,-99.99,539.000000,,2013-01-21 22:42:00,
2013-01-21 14:52:00,62.0,9.0,-100.00,WNW,302,4.0,8.0,12,-99.99,,,-99.99,516.000000,,2013-01-21 22:52:00,
2013-01-21 15:03:00,62.0,9.0,-100.00,WNW,302,4.0,8.0,12,-99.99,,,-99.99,516.000000,,2013-01-21 23:03:00,
2013-01-21 15:12:00,62.0,9.0,-100.00,WNW,282,4.0,8.0,12,-99.99,,,-99.99,466.000000,,2013-01-21 23:12:00,
2013-01-21 15:22:00,63.0,9.0,-100.00,NW,318,3.0,5.0,12,-99.99,,,-99.99,437.000000,,2013-01-21 23:22:00,
2013-01-21 15:33:00,63.0,10.0,-100.00,NW,306,3.0,7.0,12,-99.99,,,-99.99,407.000000,,2013-01-21 23:33:00,
2013-01-21 15:42:00,63.0,9.0,-100.00,NW,311,3.0,5.0,12,-99.99,,,-99.99,378.000000,,2013-01-21 23:42:00,
2013-01-21 15:52:00,63.0,8.0,-100.00,NW,319,3.0,6.0,11,-99.99,,,-99.99,348.000000,,2013-01-21 23:52:00,
2013-01-21 16:02:00,63.0,8.0,-100.00,NW,307,3.0,6.0,11,-99.99,,,-99.99,315.000000,,2013-01-22 00:02:00,
2013-01-21 16:12:00,63.0,8.0,-100.00,NW,316,3.0,7.0,11,-99.99,,,-99.99,284.000000,,2013-01-22 00:12:00,
2013-01-21 16:22:00,63.0,8.0,-100.00,NW,319,3.0,5.0,11,-99.99,,,-99.99,252.000000,,2013-01-22 00:22:00,
2013-01-21 16:32:00,63.0,8.0,-100.00,NW,316,3.0,6.0,11,-99.99,,,-99.99,218.000000,,2013-01-22 00:32:00,
2013-01-21 16:42:00,63.0,9.0,-100.00,NW,314,3.0,5.0,12,-99.99,,,-99.99,185.000000,,2013-01-22 00:42:00,
2013-01-21 16:53:00,63.0,9.0,-100.00,NW,315,2.0,5.0,12,-99.99,,,-99.99,151.000000,,2013-01-22 00:53:00,
2013-01-21 17:02:00,62.0,9.0,-100.00,NW,311,2.0,4.0,12,-99.99,,,-99.99,111.000000,,2013-01-22 01:02:00,
2013-01-21 17:12:00,62.0,9.0,-100.00,NW,311,2.0,4.0,12,-99.99,,,-99.99,111.000000,,2013-01-22 01:12:00,
2013-01-21 17:23:00,61.0,8.0,-100.00,West,272,3.0,4.0,12,-99.99,,,-99.99,15.000000,,2013-01-22 01:23:00,
2013-01-21 17:32:00,61.0,8.0,-100.00,West,272,3.0,4.0,12,-99.99,,,-99.99,15.000000,,2013-01-22 01:32:00,
2013-01-21 17:42:00,58.0,9.0,-100.00,West,270,2.0,3.0,14,-99.99,,,-99.99,7.000000,,2013-01-22 01:42:00,
2013-01-21 17:50:00,56.0,7.0,-100.00,WSW,255,1.0,3.0,14,-99.99,,,-99.99,0.000000,,2013-01-22 01:50:00,
2013-01-21 17:52:00,57.0,9.0,-100.00,WSW,254,3.0,4.0,14,-99.99,,,-99.99,2.000000,,2013-01-22 01:52:00,
2013-01-21 18:02:00,57.0,9.0,-100.00,WSW,254,3.0,4.0,14,-99.99,,,-99.99,2.000000,,2013-01-22 02:02:00,
2013-01-21 18:12:00,56.0,9.0,-100.00,WSW,245,3.0,4.0,15,-99.99,,,-99.99,0.000000,,2013-01-22 02:12:00,
2013-01-21 18:22:00,56.0,9.0,-100.00,West,269,2.0,3.0,15,-99.99,,,-99.99,0.000000,,2013-01-22 02:22:00,
2013-01-21 18:32:00,56.0,7.0,-100.00,WSW,255,1.0,3.0,14,-99.99,,,-99.99,0.000000,,2013-01-22 02:32:00,
2013-01-21 18:42:00,56.0,7.0,-100.00,WSW,255,1.0,3.0,14,-99.99,,,-99.99,0.000000,,2013-01-22 02:42:00,
2013-01-21 19:12:00,51.0,11.0,-100.00,WSW,249,1.0,2.0,20,-99.99,,,-99.99,0.000000,,2013-01-22 03:12:00,
2013-01-21 19:20:00,49.0,11.0,-100.00,South,173,1.0,3.0,21,-99.99,,,-99.99,0.000000,,2013-01-22 03:20:00,
2013-01-21 19:22:00,50.0,11.0,-100.00,ESE,112,1.0,2.0,20,-99.99,,,-99.99,0.000000,,2013-01-22 03:22:00,
2013-01-21 19:32:00,50.0,11.0,-100.00,South,176,0.0,2.0,21,-99.99,,,-99.99,0.000000,,2013-01-22 03:32:00,
2013-01-21 19:42:00,49.0,12.0,-100.00,South,170,0.0,1.0,22,-99.99,,,-99.99,0.000000,,2013-01-22 03:42:00,
2013-01-21 19:52:00,48.0,12.0,-100.00,SE,128,1.0,2.0,23,-99.99,,,-99.99,0.000000,,2013-01-22 03:52:00,
2013-01-21 20:02:00,49.0,11.0,-100.00,South,173,1.0,3.0,21,-99.99,,,-99.99,0.000000,,2013-01-22 04:02:00,
2013-01-21 20:12:00,49.0,11.0,-100.00,South,173,1.0,3.0,21,-99.99,,,-99.99,0.000000,,2013-01-22 04:12:00,
2013-01-21 20:42:00,47.0,11.0,-100.00,WSW,238,1.0,2.0,23,-99.99,,,-99.99,0.000000,,2013-01-22 04:42:00,
2013-01-21 20:52:00,48.0,11.0,-100.00,South,180,1.0,2.0,22,-99.99,,,-99.99,0.000000,,2013-01-22 04:52:00,
2013-01-21 21:03:00,48.0,11.0,-100.00,South,180,1.0,2.0,22,-99.99,,,-99.99,0.000000,,2013-01-22 05:03:00,
2013-01-21 21:12:00,47.0,10.0,-100.00,SSE,152,0.0,1.0,22,-99.99,,,-99.99,0.000000,,2013-01-22 05:12:00,
2013-01-21 21:22:00,47.0,11.0,-100.00,South,184,1.0,2.0,23,-99.99,,,-99.99,0.000000,,2013-01-22 05:22:00,
2013-01-21 21:32:00,47.0,11.0,-100.00,South,184,1.0,2.0,23,-99.99,,,-99.99,0.000000,,2013-01-22 05:32:00,
2013-01-21 21:42:00,47.0,10.0,-100.00,South,177,1.0,3.0,22,-99.99,,,-99.99,0.000000,,2013-01-22 05:42:00,
2013-01-21 21:50:00,45.0,11.0,-100.00,ESE,116,1.0,2.0,24,-99.99,,,-99.99,0.000000,,2013-01-22 05:50:00,
2013-01-21 21:53:00,47.0,10.0,-100.00,South,177,1.0,3.0,22,-99.99,,,-99.99,0.000000,,2013-01-22 05:53:00,
2013-01-21 22:02:00,47.0,10.0,-100.00,South,189,2.0,4.0,22,-99.99,,,-99.99,0.000000,,2013-01-22 06:02:00,
2013-01-21 22:12:00,47.0,11.0,-100.00,SSW,204,2.0,4.0,23,-99.99,,,-99.99,0.000000,,2013-01-22 06:12:00,
2013-01-21 22:22:00,47.0,11.0,-100.00,SSW,204,2.0,4.0,23,-99.99,,,-99.99,0.000000,,2013-01-22 06:22:00,
2013-01-21 22:32:00,47.0,11.0,-100.00,ESE,108,1.0,2.0,23,-99.99,,,-99.99,0.000000,,2013-01-22 06:32:00,
2013-01-21 22:42:00,45.0,11.0,-100.00,ESE,116,1.0,2.0,24,-99.99,,,-99.99,0.000000,,2013-01-22 06:42:00,
2013-01-21 23:00:00,45.0,11.0,-100.00,SSW,208,2.0,3.0,25,-99.99,,,-99.99,0.000000,,2013-01-22 07:00:00,
2013-01-21 23:02:00,44.0,10.0,-100.00,ESE,118,0.0,1.0,25,-99.99,,,-99.99,0.000000,,2013-01-22 07:02:00,
2013-01-21 23:12:00,44.0,10.0,-100.00,ESE,118,0.0,1.0,25,-99.99,,,-99.99,0.000000,,2013-01-22 07:12:00,
2013-01-21 23:22:00,44.0,11.0,-100.00,SSE,152,0.0,2.0,25,-99.99,,,-99.99,0.000000,,2013-01-22 07:22:00,
2013-01-21 23:32:00,45.0,11.0,-100.00,South,183,1.0,2.0,25,-99.99,,,-99.99,0.000000,,2013-01-22 07:32:00,
2013-01-21 23:42:00,45.0,11.0,-100.00,SSW,213,1.0,3.0,25,-99.99,,,-99.99,0.000000,,2013-01-22 07:42:00,
2013-01-21 23:52:00,45.0,11.0,-100.00,SSW,208,2.0,3.0,25,-99.99,,,-99.99,0.000000,,2013-01-22 07:52:00,